Torna al catalogo

STARLINK-34666

AttivoComunicazioniVLEO
NORAD 64794·PAYLOAD·🇺🇸 United States

Lanciato Jul 16, 2025 da Vandenberg Space Force Base

Loading…

Prossimi Passaggi (prossime 24 ore)

TLE

AggiornatoSource: CelesTrak SupGP

Epoca: Sep 15, 2026, 02:36 UTC

1 64794C 25150E   26258.10881944  .00028480  00000+0  23867-2 0  2588
2 64794  70.0030  17.0490 0003062 266.3822 153.9866 14.98317014    10

Traccia STARLINK-34666 in tempo reale con AllMySat

Download on the App Store